sat.trackr.live / text

‹ back to catalog

STARLINK-5507

NORAD 55638 · 2023-021L

PAYLOAD ACTIVE UNKNOWN

§ Identity

Operator
Country
US
Launch date
2023-02-17
Launch site
AFWTR
Launch vehicle
Mass (kg)
RCS (m²)

Purposes: comms

External: N2YO · Heavens-Above · Gunter

§ Orbital elements

Epoch: 2026-09-20T22:00:03.000096Z

Period
95.60 min
Inclination
70.0003°
Eccentricity
0.0003552
Mean motion
15.06268343 rev/d
Perigee alt
545.2 km
Apogee alt
550.1 km
Semi-major
6,925.8 km
B*
5.7363e-3
RAAN
72.0899°
Arg perigee
289.6946°
Mean anomaly
104.3950°
Rev number
571

§ Raw data

STARLINK-55071 55638U 23021L   26263.91670139  .00085316  00000+0  57363-2 0  99982 55638  70.0003  72.0899 0003552 289.6946 104.3950 15.06268343  5716

JSON: /api/v1/satellites/55638 · /tle

For live sub-satellite position, see the globe view (requires WebGL).

§ Visibility from observer

Set your observer location to see the next 7 days of passes ≥ 10°. The values pass through the URL so the page stays shareable.

No JS? Fill the form by hand. The geolocation button needs JavaScript.